Location: Buena Vista Beach
(41.8098°N, 81.1279°W)
Time: 16:21:33
(UTC+00:00)

YAOGAN 1 - Pass Details

Date: 29 October 2020
Orbit: 618 x 620 km, 97.9° (Epoch: 27 November)

Event Time Altitude Azimuth Distance (km) Brightness Sun altitude
Rises 23:41:36 0° 153° (SSE) 2,884 5.8 -15.4°
Reaches altitude 10° 23:43:49 10° 148° (SSE) 1,982 4.9 -15.8°
Maximum altitude 23:47:59 50° 73° (ENE) 791 2.7 -16.5°
Drops below altitude 10° 23:52:11 10° 358° (N) 1,996 5.2 -17.3°
Sets 23:54:25 0° 353° (N) 2,906 6.1 -17.7°
